Regional Weather Roundup
Issued by NWS

Home | Current Version | Previous Version | Text Only | Print | Product List | Glossary On
Versions: 1 2 3 4 5 6 7 8 9 10 11 12 13 14 15 16 17 18 19 20 21 22 23 24 25 26 27 28 29 30 31 32 33 34 35 36 37 38 39 40 41 42 43 44 45 46 47 48 49 50
000
ASUS45 KSLC 302010
RWRUT

UTAH REGIONAL WEATHER ROUNDUP
NATIONAL WEATHER SERVICE SALT LAKE CITY UT
100 PM MST FRI JAN 30 2015

UTZ001>011-023>025-302100-

NORTHERN UTAH

CITY           SKY/WX    TMP DP  RH WIND       PRES   REMARKS
BRIGHAM CITY   CLOUDY    48  33  56 NW3       30.06F
HILL AFB       CLOUDY    45  27  49 N8        30.05F
LOGAN          PTSUNNY   37  33  85 CALM      30.11F
OGDEN          CLOUDY    45  35  68 NW9       30.05F
PROVO AIRPORT  CLOUDY    41  36  81 NW12      30.04F
SALT LAKE CITY CLOUDY    43  35  73 N6        30.06F
VERNAL         CLOUDY    41  35  79 CALM      30.10F
WENDOVER       CLOUDY    46  34  61 N10       30.08F
HEBER CITY     CLOUDY    37  32  81 CALM      30.07F
WEST JORDAN    CLOUDY    43  36  75 N6        30.07F

$$

UTZ012>022-026-027-302100-

SOUTHERN/CENTRAL UTAH

CITY           SKY/WX    TMP DP  RH WIND       PRES   REMARKS
BLANDING       CLOUDY    34  34  98 SE5       30.17F WCI  30
BRYCE CANYON   LGT SNOW  33  31  92 SE5       30.00F FOG     WCI  29
CEDAR CITY     CLOUDY    41  36  82 CALM      29.94F
DELTA          CLOUDY    42  40  95 N8        30.02F
HANKSVILLE     CLOUDY    43  41  93 S6        30.08F
MILFORD        LGT RAIN  40  38  93 N16       29.98F WCI  31
MOAB/CYNLANDS  LGT RAIN  43  41  93 CALM      30.04F FOG
PRICE          LGT RAIN  40  37  89 SW3       30.07F
ST GEORGE      CLOUDY    48  43  81 W5        29.94F
KANAB          CLOUDY    39  36  87 N10       30.00F WCI  32

$$

REGIONAL REPORTS     COLORADO/ARIZONA

CITY           SKY/WX    TMP DP  RH WIND       PRES   REMARKS
CRAIG, CO      CLOUDY    37  32  82 CALM      30.10F
GRAND JUNCTION CLOUDY    46  32  58 SE7       30.05F
RIFLE          CLOUDY    43  30  60 CALM      30.06F
MONTROSE       CLOUDY    42  32  67 NW9       30.08F
CORTEZ         CLOUDY    40  34  79 VRB3      30.09F
PAGE, AZ       NOT AVBL
GRAND CANYON   LGT RAIN  39  37  92 E8G18     29.95F FOG     WCI  33
KINGMAN        CLOUDY    48  45  89 N7        29.87F
FLAGSTAFF      LGT RAIN  39  37  92 E5        29.95F FOG

$$

REGIONAL REPORTS    NEVADA/IDAHO/WYOMING

CITY           SKY/WX    TMP DP  RH WIND       PRES   REMARKS
LAS VEGAS, NV  LGT RAIN  53  46  77 NW9G16    29.88F
ELY            CLOUDY    38  36  92 N15G22    30.03F WCI  29
ELKO           CLOUDY    47  33  58 NE16      30.07F
POCATELLO, ID  MOSUNNY   37  32  82 NE3       30.16F
BURLEY         PTSUNNY   39  29  67 NW3       30.18F
EVANSTON, WY   CLOUDY    34  27  75 NE5       30.10F WCI  30
ROCK SPRINGS   CLOUDY    35  29  78 E6        30.12F WCI  30
KEMMERER       CLOUDY    36  27  69 NE6       30.13F WCI  31

$$


USA.gov is the U.S. government's official web portal to all federal, state and local government web resources and services.